This is the latest recevied weather packets stored in our database for station/object W0VI. If no packets are shown the sender has not sent any weather packets the latest 10 day(s).
| Time | Temp. | Humidity | Pressure | Rain* | Wind** | Luminosity | Snow |
|---|---|---|---|---|---|---|---|
| 1787423766 | 23.89° C | 54% | 1020.4 hPa | 0 mm | - | 204 W/m² | - |
| 1787423463 | 23.89° C | 54% | 1020.4 hPa | 0 mm | - | 145 W/m² | - |
| 1787423158 | 23.89° C | 54% | 1020.4 hPa | 0 mm | - | 644 W/m² | - |
| 1787422854 | 24.44° C | 52% | 1020.4 hPa | 0 mm | - | 167 W/m² | - |
| 1787422550 | 24.44° C | 53% | 1020.4 hPa | 0 mm | - | 585 W/m² | - |
| 1787422250 | 23.89° C | 52% | 1020.5 hPa | 0 mm | - | 586 W/m² | - |
| 1787421947 | 23.89° C | 54% | 1020.3 hPa | 0 mm | - | 613 W/m² | - |
| 1787421642 | 24.44° C | 55% | 1020.3 hPa | 0 mm | - | 152 W/m² | - |
| 1787421337 | 23.89° C | 56% | 1020.3 hPa | 0 mm | - | 564 W/m² | - |
| 1787421033 | 23.33° C | 57% | 1020.4 hPa | 0 mm | - | 600 W/m² | - |
| 1787420728 | 24.44° C | 54% | 1020.5 hPa | 0 mm | - | 422 W/m² | - |
| 1787420424 | 23.89° C | 56% | 1020.3 hPa | 0 mm | - | 666 W/m² | - |
| 1787420121 | 23.33° C | 57% | 1020.6 hPa | 0 mm | - | 539 W/m² | - |
| 1787419817 | 23.33° C | 60% | 1020.6 hPa | 0 mm | - | 320 W/m² | - |
| 1787419512 | 23.33° C | 59% | 1020.5 hPa | 0 mm | - | 235 W/m² | - |
| 1787419208 | 23.89° C | 59% | 1020.5 hPa | 0 mm | - | 658 W/m² | - |
| 1787418903 | 23.89° C | 57% | 1020.7 hPa | 0 mm | - | 663 W/m² | - |
| 1787418599 | 23.89° C | 59% | 1020.7 hPa | 0 mm | - | 646 W/m² | - |
| 1787418295 | 23.33° C | 59% | 1020.7 hPa | 0 mm | - | 184 W/m² | - |
| 1787417990 | 23.89° C | 58% | 1020.8 hPa | 0 mm | - | 206 W/m² | - |
| 1787417687 | 23.89° C | 58% | 1020.6 hPa | 0 mm | - | 645 W/m² | - |
| 1787417386 | 23.33° C | 56% | 1020.7 hPa | 0 mm | - | 642 W/m² | - |
| 1787417081 | 23.33° C | 58% | 1020.5 hPa | 0 mm | - | 656 W/m² | - |
| 1787416778 | 23.33° C | 56% | 1020.4 hPa | 0 mm | - | 663 W/m² | - |
| 1787416474 | 23.33° C | 58% | 1020.4 hPa | 0 mm | - | 650 W/m² | - |
* Rain latest hour (hover to see other rain measurements)
** Current wind speed in m/s (hover to see current wind gust speed)